Torna al catalogo

SL-12 DEB

AttivoHEO
NORAD 41677·DEBRIS·🇷🇺 Russia

Lanciato Oct 26, 2007 da Baikonur Cosmodrome

Loading…

Prossimi Passaggi (prossime 24 ore)

TLE

AggiornatoSource: Space-Track

Epoca: Sep 5, 2026, 22:27 UTC

1 41677U 07052J   26248.93609090  .00000029  00000-0  13867-3 0  9996
2 41677  64.9215 170.9924 5631739 222.7654  76.2173  4.38897307191251

Traccia SL-12 DEB in tempo reale con AllMySat

Download on the App Store